User: anonymous
Location: Radford
(37.1320°N, 80.5770°W)
Time: 13:27:13
(UTC-04:00)
Language:

Okean 1-7 - Orbit

View from above orbital plane
View from above orbital plane
View from above satellite
View from above satellite

Ground track
Ground track

The orbit data is extracted from the following two-line orbital elements,

1 23317U 94066A   14108.48441468  .00001643  00000-0  18766-3 0  5085
2 23317 082.5362 123.9041 0018965 297.9784 215.4397 14.85386956 54240
Epoch (UTC): 18 April 2014 11:37:33
Eccentricity: 0.0018965
inclination: 82.5362°
perigee height: 599 km
apogee height: 625 km
right ascension of ascending node: 123.9041°
argument of perigee: 297.9784°
revolutions per day: 14.85386956
mean anomaly at epoch: 215.4397°
orbit number at epoch: 5424

The dashed part of the orbit path shows where the satellite is in the earth's shadow,  

DLR